• în România
  • Lista ţărilor
  • Pe 7 zile
  • Temperatura apei
  • Hartă satelitară
  • Meteo pe hartă
  • Widget-uri
  • user-avatar
    Intrare

    Meteo pe oră la Selyane

    Astăzi, 21 Octombrie, Duminică

    Timp Temperatura Precipitaţii Vânt Presiune Umiditate
    00:00 +3°C° 0 mm 0 m/s 750 mmHg 93%
    01:00 +3°C° 0 mm 0 m/s 750 mmHg 93%
    02:00 +2°C° 0 mm 0 m/s 750 mmHg 94%
    03:00 +2°C° 0 mm 0 m/s 750 mmHg 94%
    04:00 +2°C° 0 mm 0 m/s 750 mmHg 94%
    05:00 +2°C° 0 mm 0 m/s 750 mmHg 94%
    06:00 +2°C° 0 mm 0 m/s 751 mmHg 93%
    07:00 +3°C° 0 mm 0 m/s 751 mmHg 92%
    08:00 +3°C° 0 mm 0 m/s 752 mmHg 90%
    09:00 +5°C° 0 mm 0 m/s 752 mmHg 84%
    10:00 +6°C° 0 mm 0 m/s 752 mmHg 77%
    11:00 +8°C° 0 mm 0 m/s 752 mmHg 70%
    12:00 +8°C° 0 mm 0 m/s 752 mmHg 68%
    13:00 +8°C° 0 mm 0 m/s 752 mmHg 66%
    14:00 +10°C° 0 mm 1 m/s 752 mmHg 64%
    15:00 +8°C° 0 mm 1 m/s 752 mmHg 70%
    16:00 +7°C° 0 mm 1 m/s 752 mmHg 75%
    17:00 +6°C° 0 mm 1 m/s 752 mmHg 81%
    18:00 +6°C° 0 mm 1 m/s 752 mmHg 83%
    19:00 +5°C° 0 mm 1 m/s 752 mmHg 85%
    20:00 +5°C° 0 mm 1 m/s 752 mmHg 87%
    21:00 +5°C° 0 mm 1 m/s 752 mmHg 88%
    22:00 +4°C° 0 mm 1 m/s 752 mmHg 89%
    23:00 +3°C° 0 mm 2 m/s 752 mmHg 90%

    Mâine, 22 Octombrie, Luni

    Timp Temperatura Precipitaţii Vânt Presiune Umiditate
    00:00 +3°C° 0 mm 2 m/s 751 mmHg 90%
    01:00 +3°C° 0 mm 2 m/s 751 mmHg 90%
    02:00 +3°C° 0 mm 2 m/s 751 mmHg 90%
    03:00 +2°C° 0 mm 2 m/s 751 mmHg 90%
    04:00 +2°C° 0 mm 2 m/s 750 mmHg 90%
    05:00 +1°C° 0 mm 3 m/s 750 mmHg 90%
    06:00 +1°C° 0 mm 3 m/s 750 mmHg 88%
    07:00 +2°C° 0 mm 3 m/s 749 mmHg 86%
    08:00 +2°C° 0 mm 3 m/s 749 mmHg 84%
    09:00 +4°C° 0 mm 4 m/s 749 mmHg 80%
    10:00 +5°C° 0 mm 4 m/s 748 mmHg 75%
    11:00 +6°C° 0 mm 4 m/s 748 mmHg 71%
    12:00 +7°C° 0 mm 4 m/s 747 mmHg 70%
    13:00 +8°C° 0 mm 5 m/s 747 mmHg 68%
    14:00 +8°C° 0 mm 5 m/s 746 mmHg 67%
    15:00 +7°C° 0 mm 4 m/s 745 mmHg 70%
    16:00 +7°C° 0 mm 4 m/s 745 mmHg 74%
    17:00 +6°C° 0 mm 4 m/s 744 mmHg 77%
    18:00 +6°C° 0.1 mm 4 m/s 744 mmHg 79%
    19:00 +6°C° 0.1 mm 4 m/s 744 mmHg 81%
    20:00 +6°C° 0.1 mm 4 m/s 743 mmHg 83%
    21:00 +6°C° 0.5 mm 4 m/s 743 mmHg 85%
    22:00 +7°C° 0.5 mm 3 m/s 742 mmHg 88%
    23:00 +7°C° 0.5 mm 3 m/s 742 mmHg 90%

    Poimâine, 23 Octombrie, Marţi

    Timp Temperatura Precipitaţii Vânt Presiune Umiditate
    00:00 +7°C° 0.8 mm 3 m/s 742 mmHg 91%
    01:00 +7°C° 0.8 mm 3 m/s 741 mmHg 91%
    02:00 +7°C° 0.8 mm 3 m/s 741 mmHg 92%
    03:00 +5°C° 0.4 mm 3 m/s 741 mmHg 91%
    04:00 +4°C° 0.4 mm 3 m/s 740 mmHg 90%
    05:00 +5°C° 0.4 mm 2 m/s 740 mmHg 89%
    06:00 +4°C° 0 mm 2 m/s 740 mmHg 88%
    07:00 +4°C° 0 mm 2 m/s 740 mmHg 87%
    08:00 +4°C° 0 mm 2 m/s 740 mmHg 86%
    09:00 +4°C° 0 mm 2 m/s 740 mmHg 80%
    10:00 +5°C° 0 mm 2 m/s 739 mmHg 74%
    11:00 +6°C° 0 mm 2 m/s 739 mmHg 69%
    12:00 +6°C° 0 mm 2 m/s 738 mmHg 66%
    13:00 +7°C° 0 mm 2 m/s 737 mmHg 63%
    14:00 +7°C° 0 mm 2 m/s 737 mmHg 60%
    15:00 +6°C° 0 mm 2 m/s 736 mmHg 65%
    16:00 +5°C° 0 mm 2 m/s 735 mmHg 70%
    17:00 +4°C° 0 mm 2 m/s 734 mmHg 75%
    18:00 +3°C° 0 mm 3 m/s 733 mmHg 76%
    19:00 +3°C° 0 mm 3 m/s 732 mmHg 77%
    20:00 +1°C° 0 mm 4 m/s 731 mmHg 78%
    21:00 +1°C° 0 mm 4 m/s 730 mmHg 79%
    22:00 +1°C° 0 mm 4 m/s 729 mmHg 80%
    23:00 +1°C° 0 mm 4 m/s 728 mmHg 80%

    24 Octombrie, Miercuri

    Timp Temperatura Precipitaţii Vânt Presiune Umiditate
    00:00 +1°C° 0 mm 5 m/s 727 mmHg 80%
    01:00 +1°C° 0 mm 5 m/s 726 mmHg 80%
    02:00 +1°C° 0 mm 5 m/s 725 mmHg 81%
    03:00 +1°C° 0.2 mm 5 m/s 724 mmHg 81%
    04:00 +1°C° 0.2 mm 5 m/s 723 mmHg 81%
    05:00 +1°C° 0.2 mm 5 m/s 722 mmHg 81%
    06:00 +2°C° 0.4 mm 5 m/s 722 mmHg 81%
    07:00 +2°C° 0.4 mm 5 m/s 721 mmHg 81%
    08:00 +2°C° 0.4 mm 5 m/s 721 mmHg 81%
    09:00 +2°C° 0.4 mm 5 m/s 721 mmHg 81%
    10:00 +3°C° 0.4 mm 5 m/s 721 mmHg 81%
    11:00 +4°C° 0.4 mm 4 m/s 721 mmHg 81%
    12:00 +4°C° 0.3 mm 4 m/s 721 mmHg 81%
    13:00 +4°C° 0.3 mm 4 m/s 721 mmHg 81%
    14:00 +4°C° 0.3 mm 4 m/s 721 mmHg 82%
    15:00 +4°C° 0.3 mm 3 m/s 721 mmHg 83%
    16:00 +4°C° 0.3 mm 3 m/s 721 mmHg 85%
    17:00 +4°C° 0.3 mm 2 m/s 721 mmHg 87%
    18:00 +4°C° 0.3 mm 2 m/s 721 mmHg 88%
    19:00 +4°C° 0.3 mm 2 m/s 721 mmHg 88%
    20:00 +4°C° 0.3 mm 2 m/s 721 mmHg 89%
    21:00 +4°C° 0.3 mm 2 m/s 721 mmHg 90%
    22:00 +4°C° 0.3 mm 2 m/s 721 mmHg 90%
    23:00 +4°C° 0.3 mm 2 m/s 721 mmHg 91%

    25 Octombrie, Joi

    Timp Temperatura Precipitaţii Vânt Presiune Umiditate
    00:00 +3°C° 0.5 mm 3 m/s 721 mmHg 91%
    01:00 +3°C° 0.5 mm 3 m/s 721 mmHg 92%
    02:00 +3°C° 0.5 mm 3 m/s 721 mmHg 92%
    03:00 +3°C° 0.4 mm 3 m/s 721 mmHg 92%
    04:00 +3°C° 0.4 mm 3 m/s 721 mmHg 91%
    05:00 +3°C° 0.4 mm 3 m/s 721 mmHg 91%
    06:00 +3°C° 0.2 mm 4 m/s 722 mmHg 90%
    07:00 +3°C° 0.2 mm 4 m/s 722 mmHg 89%
    08:00 +3°C° 0.2 mm 4 m/s 722 mmHg 88%
    09:00 +3°C° 0.3 mm 4 m/s 723 mmHg 87%
    10:00 +3°C° 0.3 mm 4 m/s 723 mmHg 85%
    11:00 +3°C° 0.3 mm 4 m/s 723 mmHg 84%
    12:00 +3°C° 0.2 mm 4 m/s 724 mmHg 82%
    13:00 +4°C° 0.2 mm 4 m/s 724 mmHg 80%
    14:00 +4°C° 0.2 mm 4 m/s 725 mmHg 78%
    15:00 +3°C° 0 mm 4 m/s 725 mmHg 80%
    16:00 +3°C° 0 mm 3 m/s 726 mmHg 82%
    17:00 +3°C° 0 mm 2 m/s 727 mmHg 85%
    18:00 +2°C° 0 mm 3 m/s 727 mmHg 87%
    19:00 +1°C° 0 mm 3 m/s 727 mmHg 88%
    20:00 +1°C° 0 mm 3 m/s 728 mmHg 90%
    21:00 +1°C° 0 mm 3 m/s 728 mmHg 91%
    22:00 +1°C° 0 mm 2 m/s 728 mmHg 93%
    23:00 +1°C° 0 mm 2 m/s 729 mmHg 94%

    26 Octombrie, Vineri

    Timp Temperatura Precipitaţii Vânt Presiune Umiditate
    00:00 +1°C° 0 mm 2 m/s 729 mmHg 95%
    01:00 +1°C° 0 mm 2 m/s 729 mmHg 95%
    02:00 +1°C° 0 mm 2 m/s 729 mmHg 96%
    03:00 +1°C° 0 mm 2 m/s 730 mmHg 95%
    04:00 +1°C° 0 mm 2 m/s 730 mmHg 95%
    05:00 0°C° 0 mm 3 m/s 730 mmHg 94%
    06:00 0°C° 0 mm 3 m/s 730 mmHg 94%
    07:00 0°C° 0 mm 3 m/s 731 mmHg 93%
    08:00 +1°C° 0 mm 2 m/s 731 mmHg 92%
    09:00 +2°C° 0.1 mm 2 m/s 731 mmHg 89%
    10:00 +2°C° 0.1 mm 2 m/s 731 mmHg 85%
    11:00 +3°C° 0.1 mm 2 m/s 731 mmHg 82%
    12:00 +3°C° 0.3 mm 2 m/s 731 mmHg 82%
    13:00 +3°C° 0.3 mm 2 m/s 732 mmHg 82%
    14:00 +4°C° 0.3 mm 2 m/s 732 mmHg 82%
    15:00 +3°C° 0.1 mm 2 m/s 732 mmHg 85%
    16:00 +2°C° 0.1 mm 2 m/s 732 mmHg 89%
    17:00 +2°C° 0.1 mm 2 m/s 732 mmHg 92%
    18:00 +1°C° 0 mm 2 m/s 733 mmHg 92%
    19:00 +1°C° 0 mm 2 m/s 733 mmHg 93%
    20:00 +1°C° 0 mm 2 m/s 733 mmHg 93%
    21:00 +1°C° 0 mm 2 m/s 733 mmHg 94%
    22:00 +1°C° 0 mm 2 m/s 733 mmHg 94%
    23:00 +1°C° 0 mm 2 m/s 733 mmHg 94%
    Arată mai mult